Georgetown, DE

8:50 AM EDT on March 30, 2017 (GMT -0400)
Sussex County

Weather History for KGED - October, 2011

Change the Weather History Date:

Wednesday, October 26, 2011

  Actual Average Record
Temperature  
Mean Temperature 60 °F 54 °F  
Max Temperature 73 °F 65 °F 77 °F (1963)
Min Temperature 47 °F 44 °F 23 °F (1952)
Degree Days  
Heating Degree Days 5 11  
Month to date heating degree days 138 189  
Since 1 July heating degree days 155 227  
Cooling Degree Days 0 0  
Month to date cooling degree days 20 18  
Year to date cooling degree days 1597 1189  
Growing Degree Days 12 (Base 50)    
Moisture  
Dew Point 49 °F    
Average Humidity 65    
Maximum Humidity 86    
Minimum Humidity 44    
Precipitation  
Precipitation 0.00 in 0.11 in 1.75 in (1982)
Month to date precipitation 1.09 3.13  
Year to date precipitation 28.83 36.53  
Sea Level Pressure  
Sea Level Pressure 29.91 in    
Wind  
Wind Speed 7 mph (SW)    
Max Wind Speed 22 mph    
Max Gust Speed 29 mph    
Visibility 10 miles    
Events      
T = Trace of Precipitation, MM = Missing Value Source: NWS Daily Summary

Daily Weather History Graph

Daily Weather History Graph

Search for Another Location

Airport or City:

Trip Planner

Search our weather history database for the weather conditions in past years. The results will help you decide how hot, cold, wet, or windy it might be!

Date:

Astronomy

Oct. 26, 2011 Rise Set
Actual Time 7:21 AM EDT 6:08 PM EDT
Civil Twilight 6:54 AM EDT 6:35 PM EDT
Nautical Twilight 6:23 AM EDT 7:06 PM EDT
Astronomical Twilight 5:52 AM EDT 7:37 PM EDT
Moon 7:05 AM EDT (10/26) 5:50 PM EDT (10/26)
Length of Visible Light 11h 41m
Length of Day
10h 47m
Waning Crescent, 0% of the Moon is Illuminated
Oct 26
Waning Crescent
Oct 26
New
Nov 2
First Quarter
Nov 10
Full
Nov 18
Last Quarter

Hourly Weather History & Observations

Time (EDT) Temp. Dew Point Humidity Pressure Visibility Wind Dir Wind Speed Gust Speed Precip Events Conditions
12:54 AM 50.0 °F 43.0 °F 77% 30.09 in 10.0 mi Calm Calm - N/A   Clear
2:54 AM 51.1 °F 46.0 °F 83% 30.06 in 10.0 mi South 3.5 mph - N/A   Clear
3:54 AM 50.0 °F 46.0 °F 86% 30.04 in 10.0 mi SSW 5.8 mph - N/A   Clear
4:54 AM 52.0 °F 46.9 °F 83% 30.02 in 10.0 mi SSW 8.1 mph - N/A   Clear
5:54 AM 52.0 °F 46.9 °F 83% 30.00 in 10.0 mi SSW 9.2 mph - N/A   Clear
6:54 AM 51.1 °F 46.9 °F 86% 29.98 in 10.0 mi SSW 6.9 mph - N/A   Clear
8:54 AM 61.0 °F 46.9 °F 60% 29.96 in 10.0 mi SW 13.8 mph 20.7 mph N/A   Clear
9:54 AM 64.0 °F 46.0 °F 52% 29.96 in 10.0 mi WSW 15.0 mph 20.7 mph N/A   Clear
10:54 AM 69.1 °F 48.0 °F 47% 29.94 in 10.0 mi SW 10.4 mph 20.7 mph N/A   Clear
11:54 AM 70.0 °F 48.9 °F 47% 29.93 in 10.0 mi SW 12.7 mph 19.6 mph N/A   Clear
12:54 PM 72.0 °F 50.0 °F 46% 29.87 in 10.0 mi SW 20.7 mph 25.3 mph N/A   Clear
1:54 PM 73.0 °F 50.0 °F 44% 29.84 in 10.0 mi SW 15.0 mph 23.0 mph N/A   Clear
2:54 PM 71.1 °F 50.0 °F 47% 29.85 in 10.0 mi WSW 11.5 mph - N/A   Clear
3:54 PM 69.1 °F 48.9 °F 49% 29.83 in 10.0 mi WSW 5.8 mph - N/A   Clear
4:54 PM 70.0 °F 52.0 °F 53% 29.82 in 10.0 mi SW 6.9 mph - N/A   Clear
5:54 PM 66.0 °F 53.1 °F 63% 29.81 in 10.0 mi SSW 4.6 mph - N/A   Partly Cloudy
6:54 PM 66.0 °F 51.1 °F 59% 29.82 in 10.0 mi Calm Calm - N/A   Clear
8:54 PM 62.1 °F 54.0 °F 75% 29.82 in 10.0 mi Calm Calm - N/A   Overcast
9:54 PM 62.1 °F 54.0 °F 75% 29.82 in 10.0 mi Calm Calm - N/A   Overcast
10:54 PM 64.0 °F 54.0 °F 70% 29.81 in 10.0 mi SW 5.8 mph - N/A   Scattered Clouds
11:54 PM 64.0 °F 54.0 °F 70% 29.78 in 10.0 mi SW 8.1 mph - N/A   Clear